�������l�o���
Date,Time,MP-1(��Sv/h),MP-2(��Sv/h),MP-3(��Sv/h),MP-4(��Sv/h),MP-5(��Sv/h),MP-6(��Sv/h),MP-7(��Sv/h),MP-8(��Sv/h),����,����(m/s),���J
2022/07/13,00:00,0.588,0.823,0.529,1.006,0.713,0.339,0.589,0.554,�k��,1.5,�L
2022/07/13,00:10,0.587,0.823,0.528,1.002,0.709,0.338,0.588,0.553,�k�k��,1.5,�L
2022/07/13,00:20,0.586,0.818,0.526,0.999,0.708,0.339,0.587,0.551,�k�k��,0.9,�L
2022/07/13,00:30,0.582,0.817,0.524,0.998,0.705,0.338,0.586,0.550,�k,1.4,�L
2022/07/13,00:40,0.578,0.812,0.524,0.992,0.700,0.334,0.583,0.546,�k��,2.9,�L
2022/07/13,00:50,0.572,0.803,0.518,0.982,0.695,0.334,0.582,0.544,-,CALM,�L
2022/07/13,01:00,0.575,0.798,0.518,0.976,0.692,0.332,0.579,0.545,�k��,2.0,�L
2022/07/13,01:10,0.575,0.798,0.515,0.966,0.686,0.332,0.577,0.544,�k��,1.4,�L
2022/07/13,01:20,0.574,0.797,0.516,0.968,0.685,0.332,0.579,0.544,�k��,2.0,�L
2022/07/13,01:30,0.575,0.797,0.516,0.967,0.687,0.332,0.576,0.544,�k��,2.0,�L
2022/07/13,01:40,0.569,0.785,0.512,0.955,0.681,0.332,0.577,0.545,�k�k��,2.2,�L
2022/07/13,01:50,0.567,0.788,0.515,0.959,0.682,0.332,0.577,0.543,�k��,1.9,�L
2022/07/13,02:00,0.570,0.790,0.513,0.950,0.669,0.328,0.571,0.538,��,4.9,�L
2022/07/13,02:10,0.559,0.777,0.507,0.939,0.669,0.331,0.571,0.539,�k,3.6,�L
2022/07/13,02:20,0.564,0.787,0.512,0.951,0.675,0.332,0.574,0.541,�k�k��,1.4,�L
2022/07/13,02:30,0.571,0.793,0.514,0.954,0.679,0.333,0.574,0.542,�k��,1.4,�L
2022/07/13,02:40,0.572,0.793,0.513,0.954,0.676,0.331,0.575,0.541,�k��,1.9,�L
2022/07/13,02:50,0.571,0.788,0.512,0.954,0.672,0.331,0.572,0.540,�k�k��,1.7,�L
2022/07/13,03:00,0.571,0.792,0.513,0.954,0.675,0.331,0.573,0.541,�k�k��,2.0,�L
2022/07/13,03:10,0.572,0.794,0.512,0.956,0.674,0.331,0.573,0.543,�k�k��,2.6,�L
2022/07/13,03:20,0.572,0.793,0.513,0.958,0.673,0.333,0.573,0.541,�k�k��,2.3,�L
2022/07/13,03:30,0.571,0.793,0.514,0.958,0.675,0.333,0.574,0.543,�k�k��,2.3,�L
2022/07/13,03:40,0.570,0.792,0.514,0.959,0.677,0.333,0.575,0.544,�k�k��,1.7,�L
2022/07/13,03:50,0.573,0.796,0.514,0.962,0.678,0.334,0.575,0.544,�k�k��,1.1,�L
2022/07/13,04:00,0.571,0.798,0.515,0.965,0.678,0.334,0.576,0.543,�k,0.8,�L
2022/07/13,04:10,0.570,0.797,0.516,0.964,0.680,0.334,0.576,0.543,�k�k��,1.5,�L
2022/07/13,04:20,0.571,0.797,0.515,0.966,0.680,0.335,0.575,0.543,�k�k��,1.5,�L
2022/07/13,04:30,0.569,0.797,0.515,0.968,0.682,0.335,0.574,0.544,�k��,1.4,�L
2022/07/13,04:40,0.572,0.796,0.516,0.966,0.682,0.336,0.575,0.544,-,CALM,�L
2022/07/13,04:50,0.570,0.798,0.516,0.970,0.683,0.334,0.577,0.543,���쓌,0.6,�L
2022/07/13,05:00,0.567,0.797,0.515,0.969,0.685,0.335,0.575,0.541,��쓌,1.9,�L
2022/07/13,05:10,0.570,0.790,0.510,0.964,0.680,0.335,0.575,0.541,�쓌,2.3,�L
2022/07/13,05:20,0.571,0.788,0.512,0.958,0.675,0.332,0.574,0.543,��쓌,2.6,�L
2022/07/13,05:30,0.570,0.787,0.511,0.961,0.673,0.331,0.574,0.543,��,2.6,�L
2022/07/13,05:40,0.570,0.789,0.511,0.963,0.675,0.333,0.576,0.543,��,2.9,�L
2022/07/13,05:50,0.571,0.790,0.512,0.964,0.677,0.333,0.575,0.542,��쓌,2.8,��
2022/07/13,06:00,0.572,0.791,0.512,0.966,0.677,0.333,0.574,0.543,��,2.0,��
2022/07/13,06:10,0.572,0.794,0.514,0.965,0.677,0.333,0.575,0.544,��,2.3,��
2022/07/13,06:20,0.572,0.793,0.514,0.969,0.677,0.332,0.575,0.542,��,2.2,��
2022/07/13,06:30,0.573,0.795,0.516,0.968,0.680,0.332,0.575,0.543,��쓌,2.3,��
2022/07/13,06:40,0.573,0.797,0.516,0.968,0.681,0.332,0.576,0.544,��,2.6,��
2022/07/13,06:50,0.575,0.800,0.516,0.969,0.682,0.334,0.575,0.544,��쓌,1.7,��
2022/07/13,07:00,0.573,0.798,0.516,0.972,0.682,0.333,0.576,0.543,��,2.0,��
2022/07/13,07:10,0.572,0.798,0.516,0.971,0.683,0.333,0.575,0.545,��쓌,2.0,��
2022/07/13,07:20,0.573,0.801,0.516,0.971,0.682,0.331,0.575,0.545,��쓌,2.3,�L
2022/07/13,07:30,0.572,0.801,0.516,0.973,0.683,0.331,0.575,0.543,��쓌,2.6,�L
2022/07/13,07:40,0.572,0.798,0.515,0.971,0.683,0.331,0.575,0.543,��쓌,2.3,�L
2022/07/13,07:50,0.573,0.798,0.515,0.972,0.684,0.332,0.576,0.543,��쓌,2.6,�L
2022/07/13,08:00,0.572,0.798,0.516,0.971,0.682,0.333,0.577,0.543,�쓌,3.1,�L
2022/07/13,08:10,0.574,0.801,0.516,0.971,0.682,0.332,0.575,0.542,��쓌,2.2,��
2022/07/13,08:20,0.573,0.796,0.515,0.975,0.682,0.333,0.576,0.543,��쓌,2.5,��
2022/07/13,08:30,0.572,0.800,0.516,0.973,0.683,0.332,0.575,0.542,��쓌,2.0,��
2022/07/13,08:40,0.573,0.800,0.516,0.974,0.682,0.331,0.575,0.542,�쓌,2.3,��
2022/07/13,08:50,0.573,0.798,0.514,0.974,0.683,0.332,0.577,0.544,�쓌,1.5,��
2022/07/13,09:00,0.573,0.798,0.516,0.974,0.683,0.332,0.578,0.544,�쓌,2.8,��
2022/07/13,09:10,0.574,0.799,0.516,0.976,0.687,0.332,0.577,0.545,�쓌,2.6,��
2022/07/13,09:20,0.574,0.800,0.515,0.975,0.684,0.331,0.575,0.544,�쓌,2.9,��
2022/07/13,09:30,0.575,0.799,0.515,0.976,0.686,0.333,0.576,0.544,�쓌,2.3,�L
2022/07/13,09:40,0.575,0.798,0.515,0.978,0.684,0.333,0.575,0.544,�쓌,2.8,�L
2022/07/13,09:50,0.575,0.798,0.515,0.976,0.684,0.333,0.574,0.543,�쓌,1.7,�L
2022/07/13,10:00,0.577,0.798,0.516,0.972,0.683,0.332,0.577,0.545,���쓌,1.5,�L
2022/07/13,10:10,0.575,0.798,0.514,0.975,0.683,0.330,0.574,0.544,�쓌,2.6,�L
2022/07/13,10:20,0.573,0.799,0.515,0.974,0.683,0.332,0.575,0.543,�쓌,2.5,��
2022/07/13,10:30,0.574,0.797,0.516,0.974,0.684,0.332,0.577,0.544,�쓌,3.0,�L
2022/07/13,10:40,0.573,0.798,0.517,0.976,0.683,0.332,0.576,0.545,�쓌,2.9,�L
2022/07/13,10:50,0.573,0.798,0.515,0.977,0.683,0.332,0.577,0.545,�쓌,2.0,��
2022/07/13,11:00,0.575,0.799,0.518,0.975,0.685,0.333,0.577,0.546,�쓌,2.2,��
2022/07/13,11:10,0.576,0.801,0.518,0.974,0.684,0.332,0.575,0.545,���쓌,3.1,��
2022/07/13,11:20,0.576,0.800,0.519,0.977,0.686,0.332,0.578,0.543,���쓌,4.5,��
2022/07/13,11:30,0.575,0.801,0.518,0.978,0.686,0.332,0.577,0.545,���쓌,3.7,��
2022/07/13,11:40,0.576,0.803,0.518,0.976,0.684,0.333,0.577,0.543,�쓌,4.1,�L
2022/07/13,11:50,0.576,0.801,0.517,0.976,0.685,0.332,0.578,0.543,�쓌,5.0,�L
2022/07/13,12:00,0.576,0.802,0.516,0.979,0.687,0.331,0.577,0.544,�쓌,4.7,�L
2022/07/13,12:10,0.576,0.806,0.518,0.979,0.686,0.334,0.576,0.544,�쓌,4.1,�L
2022/07/13,12:20,0.576,0.805,0.518,0.979,0.686,0.333,0.578,0.544,���쓌,4.2,��
2022/07/13,12:30,0.577,0.805,0.519,0.979,0.688,0.333,0.579,0.546,�쓌,4.1,��
2022/07/13,12:40,0.579,0.806,0.519,0.980,0.685,0.333,0.578,0.546,���쓌,3.8,��
2022/07/13,12:50,0.577,0.806,0.517,0.979,0.689,0.333,0.579,0.545,�쓌,3.7,��
2022/07/13,13:00,0.576,0.805,0.518,0.977,0.688,0.333,0.579,0.545,�쓌,3.4,�L
2022/07/13,13:10,0.578,0.806,0.519,0.981,0.688,0.333,0.578,0.545,���쓌,4.1,��
2022/07/13,13:20,0.575,0.804,0.519,0.980,0.689,0.333,0.578,0.546,���쓌,3.8,��
2022/07/13,13:30,0.579,0.806,0.519,0.975,0.689,0.335,0.581,0.546,�쓌,4.4,��
2022/07/13,13:40,0.578,0.806,0.519,0.977,0.690,0.334,0.580,0.548,�쓌,4.0,��
2022/07/13,13:50,0.579,0.806,0.521,0.977,0.689,0.334,0.579,0.546,���쓌,4.0,��
2022/07/13,14:00,0.578,0.807,0.521,0.978,0.692,0.334,0.581,0.548,�쓌,3.9,�L
2022/07/13,14:10,0.578,0.808,0.521,0.978,0.691,0.334,0.581,0.546,�쓌,3.0,�L
2022/07/13,14:20,0.579,0.809,0.521,0.979,0.690,0.334,0.582,0.548,�쓌,2.6,�L
2022/07/13,14:30,0.578,0.809,0.521,0.978,0.693,0.335,0.581,0.545,���쓌,3.4,�L
2022/07/13,14:40,0.578,0.810,0.520,0.978,0.691,0.335,0.581,0.547,���쓌,3.4,��
2022/07/13,14:50,0.581,0.810,0.521,0.977,0.693,0.335,0.583,0.547,���쓌,3.2,��
2022/07/13,15:00,0.580,0.811,0.520,0.978,0.694,0.334,0.579,0.548,���쓌,2.9,��
2022/07/13,15:10,0.579,0.808,0.522,0.979,0.692,0.336,0.581,0.547,���쓌,3.2,��
2022/07/13,15:20,0.579,0.808,0.522,0.980,0.694,0.334,0.582,0.548,��,3.1,��
2022/07/13,15:30,0.579,0.811,0.521,0.979,0.695,0.334,0.583,0.546,��,2.5,��
2022/07/13,15:40,0.576,0.806,0.520,0.980,0.691,0.333,0.581,0.546,���쓌,2.8,�L
2022/07/13,15:50,0.575,0.808,0.522,0.980,0.694,0.335,0.581,0.547,���쓌,3.7,�L
2022/07/13,16:00,0.575,0.804,0.519,0.976,0.691,0.333,0.577,0.545,���쓌,3.3,�L
2022/07/13,16:10,0.574,0.802,0.517,0.977,0.684,0.333,0.577,0.543,���쓌,3.2,�L
2022/07/13,16:20,0.575,0.804,0.514,0.977,0.681,0.333,0.577,0.544,���쓌,3.5,�L
2022/07/13,16:30,0.576,0.804,0.516,0.978,0.682,0.331,0.577,0.544,���쓌,3.8,��
2022/07/13,16:40,0.577,0.803,0.517,0.979,0.683,0.333,0.577,0.544,��,3.6,��
2022/07/13,16:50,0.577,0.805,0.516,0.979,0.684,0.332,0.576,0.546,��,2.8,��
2022/07/13,17:00,0.576,0.804,0.516,0.980,0.685,0.333,0.579,0.543,��,4.7,��
2022/07/13,17:10,0.577,0.804,0.518,0.982,0.684,0.333,0.578,0.546,��,3.9,��
2022/07/13,17:20,0.575,0.805,0.517,0.980,0.684,0.333,0.578,0.545,��,2.6,��
2022/07/13,17:30,0.576,0.806,0.518,0.981,0.685,0.332,0.578,0.545,��,3.2,��
2022/07/13,17:40,0.576,0.806,0.519,0.982,0.687,0.332,0.580,0.545,���쓌,3.0,�L
2022/07/13,17:50,0.575,0.805,0.518,0.979,0.685,0.332,0.577,0.544,��,3.0,�L
2022/07/13,18:00,0.574,0.805,0.519,0.978,0.685,0.332,0.578,0.545,���쓌,2.6,�L
2022/07/13,18:10,0.577,0.806,0.517,0.981,0.686,0.333,0.577,0.545,��,2.0,��
2022/07/13,18:20,0.576,0.806,0.517,0.979,0.687,0.332,0.578,0.544,��,1.5,��
2022/07/13,18:30,0.575,0.807,0.518,0.980,0.686,0.334,0.579,0.544,��,1.4,��
2022/07/13,18:40,0.576,0.806,0.517,0.981,0.684,0.332,0.578,0.545,���쓌,1.9,��
2022/07/13,18:50,0.574,0.807,0.517,0.981,0.686,0.333,0.578,0.544,���쓌,2.2,��
2022/07/13,19:00,0.576,0.808,0.520,0.979,0.688,0.333,0.579,0.545,���쓌,2.3,�L
2022/07/13,19:10,0.575,0.807,0.517,0.981,0.685,0.333,0.578,0.548,���쓌,3.1,�L
2022/07/13,19:20,0.575,0.808,0.519,0.981,0.688,0.332,0.579,0.546,���쓌,3.7,��
2022/07/13,19:30,0.576,0.808,0.520,0.981,0.688,0.334,0.578,0.547,���쓌,3.0,��
2022/07/13,19:40,0.577,0.807,0.518,0.980,0.686,0.334,0.578,0.547,���쓌,3.3,��
2022/07/13,19:50,0.576,0.810,0.519,0.981,0.686,0.334,0.578,0.546,���쓌,3.1,��
2022/07/13,20:00,0.579,0.808,0.519,0.980,0.689,0.333,0.580,0.547,���쓌,2.9,�L
2022/07/13,20:10,0.578,0.808,0.518,0.982,0.688,0.332,0.579,0.544,���쓌,3.5,�L
2022/07/13,20:20,0.577,0.809,0.517,0.980,0.686,0.332,0.578,0.546,��,2.9,�L
2022/07/13,20:30,0.578,0.808,0.519,0.979,0.686,0.333,0.579,0.547,��,2.5,��
2022/07/13,20:40,0.578,0.810,0.518,0.979,0.689,0.334,0.580,0.547,��,1.9,��
2022/07/13,20:50,0.578,0.807,0.518,0.982,0.687,0.335,0.579,0.547,��,1.2,��
2022/07/13,21:00,0.578,0.811,0.519,0.980,0.687,0.334,0.581,0.546,���k��,1.1,��
2022/07/13,21:10,0.579,0.809,0.520,0.980,0.686,0.334,0.578,0.547,�k��,1.1,��
2022/07/13,21:20,0.578,0.810,0.520,0.982,0.688,0.334,0.579,0.548,���k��,2.6,�L
2022/07/13,21:30,0.578,0.811,0.522,0.982,0.686,0.334,0.579,0.548,���k��,3.3,�L
2022/07/13,21:40,0.575,0.809,0.519,0.981,0.690,0.335,0.579,0.548,���k��,3.9,�L
2022/07/13,21:50,0.576,0.810,0.520,0.981,0.687,0.334,0.580,0.548,���k��,4.1,�L
2022/07/13,22:00,0.578,0.809,0.517,0.981,0.687,0.334,0.579,0.546,���k��,4.2,�L
2022/07/13,22:10,0.576,0.807,0.518,0.981,0.686,0.333,0.579,0.547,���k��,4.2,��
2022/07/13,22:20,0.576,0.809,0.516,0.979,0.687,0.335,0.578,0.545,���k��,4.5,��
2022/07/13,22:30,0.576,0.807,0.517,0.980,0.688,0.334,0.578,0.546,���k��,5.6,�L
2022/07/13,22:40,0.576,0.808,0.517,0.979,0.688,0.334,0.580,0.547,���k��,6.0,�L
2022/07/13,22:50,0.578,0.809,0.517,0.980,0.688,0.334,0.579,0.547,���k��,5.3,��
2022/07/13,23:00,0.577,0.808,0.520,0.980,0.687,0.333,0.580,0.546,���k��,5.0,��
2022/07/13,23:10,0.576,0.809,0.517,0.982,0.686,0.334,0.579,0.547,���k��,5.4,��
2022/07/13,23:20,0.577,0.810,0.520,0.981,0.690,0.334,0.580,0.547,���k��,5.9,��
2022/07/13,23:30,0.578,0.809,0.519,0.980,0.689,0.334,0.580,0.547,���k��,5.1,��
2022/07/13,23:40,0.577,0.808,0.519,0.980,0.689,0.334,0.580,0.545,���k��,5.0,��
2022/07/13,23:50,0.576,0.810,0.518,0.982,0.690,0.334,0.578,0.545,���k��,3.8,��
